#timestamp,LO_Frequency,Hit,StdDev 
1602224215.9,286047003.5,P
1602224235.7,286047004.2,P
1602224255.6,286047003.8,P
1602224275.4,286047003.9,Y
1602224295.2,286047000.8,P
1602224315.1,286047000.8,N
1602224316.0,286047000.8,N
1602224335.8,286047001.0,N
1602224355.7,286047000.9,N
1602224375.5,286046998.6,N
1602224395.3,286047000.2,N
1602224415.2,286047002.7,N
1602224435.0,286047002.1,N
1602224435.9,286047002.1,N
1602224455.7,286047005.7,Y
1602224475.6,286047003.7,P
1602224495.4,286047004.0,P
1602224515.3,286047002.5,N
1602224535.1,286046998.1,N
1602224536.0,286046998.1,N
1602224555.8,286046998.4,N
1602224575.7,286046999.0,N
1602224595.5,286046996.7,N
1602224615.3,286046999.6,N
1602224635.2,286046997.4,N
1602224655.0,286046995.1,N
1602224655.9,286046995.1,N
1602224675.8,286046997.9,N
1602224695.6,286046997.8,N
1602224715.4,286046997.2,N
1602224735.3,286046997.2,N
1602224755.1,286046999.3,N
1602224775.9,286046999.2,N
1602224795.7,286046998.2,N
1602224815.5,286046998.1,N
1602224835.4,286046998.1,N
1602224855.2,286046998.7,N
1602224875.0,286046999.2,N
1602224875.9,286046999.2,N
1602224895.8,286046997.7,N
1602224915.6,286046997.9,N
1602224935.5,286046997.4,N
1602224955.3,286046996.5,N
1602224975.1,286046998.5,N
1602224995.9,286046999.1,N
1602225015.7,286047001.1,N
1602225035.5,286046998.5,N
1602225055.4,286046998.8,N
1602225075.2,286046998.9,N
1602225095.1,286046996.6,N
1602225096.0,286046996.6,N
1602225115.8,286046996.6,N
1602225135.6,286046997.2,N
1602225155.5,286046997.8,N
1602225175.3,286046995.2,Y
1602225195.2,286046999.5,P
1602225215.9,286046996.6,P
1602225235.7,286046998.8,N
1602225255.6,286046999.3,N
1602225275.4,286046996.5,Y
1602225295.3,286047001.2,P
1602225315.1,286046998.8,N
1602225316.0,286046998.8,N
1602225335.8,286047000.2,N
1602225355.7,286046998.4,N
1602225375.5,286046998.9,N
1602225395.4,286046998.9,N
1602225415.2,286047000.4,N
1602225435.0,286047000.1,N
1602225435.9,286047000.1,N
1602225455.8,286047002.4,N
1602225475.6,286047002.6,N
1602225495.4,286047002.7,N
1602225515.3,286047000.3,N
1602225535.1,286047002.8,N
1602225555.9,286046999.8,N
1602225575.7,286047000.6,N
1602225595.5,286046999.8,N
1602225615.4,286047000.3,N
1602225635.2,286047002.2,N
1602225655.0,286047002.2,N
1602225655.9,286047002.2,N
1602225675.8,286047001.6,N
1602225695.6,286047001.3,N
1602225715.5,286047004.1,N
1602225735.3,286047004.3,N
1602225755.1,286047001.5,N
1602225775.9,286047001.8,N
1602225795.7,286047002.6,N
1602225815.5,286047000.1,N
1602225835.4,286047001.4,N
1602225855.2,286047001.7,N
1602225875.1,286047003.5,N
1602225876.0,286047003.5,N
1602225895.8,286047004.3,N
1602225915.6,286047002.3,N
1602225935.5,286047002.6,N
1602225955.3,286046999.9,N
1602225975.1,286047002.8,N
1602225995.9,286047002.4,N
1602226015.7,286047002.2,N
1602226035.6,286047002.3,N
1602226055.4,286047003.5,N
1602226075.2,286047003.0,N
1602226095.1,286047003.3,N
1602226096.0,286047003.3,N
1602226115.8,286047004.3,Y
1602226135.7,286046999.8,P
1602226155.5,286047002.8,N
1602226175.3,286047000.4,N
1602226195.2,286047000.0,N
1602226215.0,286047001.2,N
1602226215.9,286047001.2,N
1602226235.7,286047001.1,N
1602226255.6,286047000.7,N
1602226275.4,286047000.8,N
1602226295.3,286046998.4,N
1602226315.1,286046999.4,N
1602226316.0,286046999.4,N
1602226335.8,286046996.5,Y
1602226355.7,286046996.8,P
1602226375.5,286046998.6,N
1602226395.4,286047000.5,N
1602226415.2,286047000.8,N
1602226435.0,286047001.2,N
1602226435.9,286047001.2,N
1602226455.8,286047000.9,N
1602226475.6,286047000.8,N
1602226495.4,286046998.7,N
1602226515.3,286046999.1,N
1602226535.1,286046997.3,N
1602226555.9,286046997.6,N
1602226575.7,286046996.9,N
1602226595.5,286046997.3,N
1602226615.4,286046996.5,N
1602226635.2,286046999.0,N
1602226655.0,286046998.4,N
1602226655.9,286046998.4,N
1602226675.8,286046998.5,N
1602226695.6,286047000.5,N
1602226715.5,286047000.5,N
1602226735.3,286047001.2,N
1602226755.1,286047001.2,N
1602226775.9,286046998.1,N
1602226795.7,286046998.6,N
